Location: G�ndlingen
(48.0142°N, 7.6396°E)
Time: 19:08:11
(UTC+00:00)

Cosmos 1400 Rocket - Pass Details

Date: 05 July 2020
Orbit: 520 x 569 km, 81.2° (Epoch: 12 August)

Event Time Altitude Azimuth Distance (km) Brightness Sun altitude
Rises 21:08:44 0° 341° (NNW) 2,726 8.1 -12.1°
Reaches altitude 10° 21:11:01 10° 333° (NNW) 1,819 7.0 -12.4°
Maximum altitude 21:14:42 37° 266° (W) 855 4.0 -12.7°
Drops below altitude 10° 21:18:19 10° 199° (SSW) 1,779 5.0 -13.0°
Enters shadow 21:18:27 - 198° (SSW) 1,827 5.1 -13.0°
